Tracking 31011 objects as of 13-Jul-2025
HD Live streaming from Space Station
objects crossing your sky now

STARLINK-1154

Track STARLINK-1154 now!
10-day predictions
STARLINK-1154 is classified as:


NORAD ID: 45198
Int'l Code: 2020-012W
Perigee: 553.2 km
Apogee: 555.5 km
Inclination: 53.1 °
Period: 95.6 minutes
Semi major axis: 6925 km
RCS: Unknown
Launch date: February 17, 2020
Source: United States (US)
Launch site: AIR FORCE EASTERN TEST RANGE (AFETR)
Your satellite tracking list
Your tracking list is empty




NASA's NSSDC Master Catalog

Two Line Element Set (TLE):
1 45198U 20012W   25193.54757671  .00000354  00000-0  42645-4 0  9991
2 45198  53.0558  24.6548 0001632  91.3304 268.7872 15.06400500298860
Source of the keplerian elements: AFSPC